{"data":{"norad_id":61557,"epoch":"2026-05-25T03:18:31.492800Z","epoch_age_seconds":67115,"freshness":"FRESH","line1":"1 61557U 24185F   26145.13786450  .00000549  00000+0  23282-3 0  9993","line2":"2 61557  88.9827  58.0771 0011095 116.8911 243.3417 14.24042759 93272","mean_motion":14.24042759,"eccentricity":0.0011095,"inclination_deg":88.9827,"raan_deg":58.0771,"arg_perigee_deg":116.8911,"mean_anomaly_deg":243.3417,"bstar":0.00023282,"rev_number":9327,"period_min":101.12055911939,"perigee_km":803.73572137299,"apogee_km":819.68999821186,"semimajor_km":7189.8498597924,"source":"CELESTRAK","updated_at":"2026-05-25T13:38:02.413679Z"}}